TRINITY LAKE (CLE)

Elevation: 2370' · TRINITY R basin · Operator: US Bureau of Reclamation

Provisional data, subject to change.
Query executed Tuesday at 11:43:11   clock

Select a sensor type for a plot of data.
Note: Reservoir Flows are daily averages.

Earlier

Date RES ELE    STORAGE    RES CHG    OUTFLOW    INFLOW    EVAP    FNF    RIV REL    PPT INC    SPILL    DIS PWR   
 FEET   AF   AF   CFS   CFS   CFS   CFS   CFS   INCHES   CFS   CFS  
08/03/2014 2237.11 848540 -5247 2573 17 89 36 0 0.00 0 2573
08/04/2014 2236.39 842845 -5695 2879 99 91 99 0 0.00 0 2879
08/05/2014 2235.69 837330 -5515 2736 16 60 16 0 0.01 0 2736
08/06/2014 2235.01 831992 -5338 2757 91 25 91 0 0.00 0 2757
08/07/2014 2234.42 827388 -4604 2234 -27 60 70 e 0 0.00 0 2234
08/08/2014 2233.76 822252 -5136 2656 138 71 138 0 0.00 0 2656
08/09/2014 2233.03 816594 -5658 2945 167 75 70 e 0 0.00 0 2945
08/10/2014 2232.26 810662 -5932 2970 56 77 56 0 0.00 0 2970
08/11/2014 2231.51 804910 -5752 2950 122 72 122 0 0.00 0 2950
08/12/2014 2230.73 798955 -5955 2898 -32 72 -32 0 0.00 0 2898
08/13/2014 2229.97 793179 -5776 2903 60 69 60 0 0.00 0 2903
08/14/2014 2229.15 786983 -6196 3135 89 78 89 0 0.00 0 3135
08/15/2014 2228.36 781044 -5939 2987 50 57 50 0 0.00 0 2987
08/16/2014 2227.58 775205 -5839 2947 62 59 62 0 0.00 0 2947
08/17/2014 2226.84 769688 -5517 2831 129 79 129 0 0.00 0 2831
08/18/2014 2226.11 764271 -5417 2746 87 72 87 0 0.00 0 2746
08/19/2014 2225.29 758218 -6053 3026 46 72 46 0 0.00 0 3026
08/20/2014 2224.51 752487 -5731 2925 99 63 99 0 0.00 0 2925
08/21/2014 2223.37 744158 -8329 2741 -- 64 -1394 0 0.00 0 2741
08/22/2014 2222.64 738855 -5303 2741 131 64 131 0 0.00 0 2741
08/23/2014 2221.86 733211 -5644 2910 122 57 122 0 0.00 0 2910
08/24/2014 2221.09 727669 -5542 2591 -146 57 -146 0 0.00 0 2591
08/25/2014 2220.27 721799 -5870 3177 277 59 277 0 0.00 0 3177
08/26/2014 2219.33 715110 -6689 3406 94 60 94 0 0.00 0 3406
08/27/2014 2218.65 710303 -4807 2195 -168 60 -168 0 0.00 0 2195
08/28/2014 2218.04 706010 -4293 2264 164 64 -- 0 0.00 0 2264
08/29/2014 2217.47 702030 -3980 1791 -161 55 -- 0 0.00 0 1791
08/30/2014 2217.11 699518 -2512 1011 -192 63 -- 0 0.00 0 1011
08/31/2014 2216.82 697505 -2013 1044 90 61 -- 0 0.00 0 1044
09/01/2014 2216.48 695154 -2351 1366 220 39 -- 0 0.00 0 1366
09/02/2014 -- -- -- -- -- -- -- -- -- -- --

Later | Latest

Warning! This data is preliminary and subject to revision.

Download Data Now Download Data Now | Show CLE Map | Plot CLE Data | 1 Month CLE Data | Real-Time CLE Data | CLE Info